Regional Weather Roundup
Issued by NWS Wakefield, VA

Home | Current Version | Previous Version | Graphics & Text | Print | Product List | Glossary On
Versions: 1 2 3 4 5 6 7 8 9 10 11 12 13 14 15 16 17 18 19 20 21 22 23 24 25 26 27 28 29 30 31 32 33 34 35 36 37 38 39 40 41 42 43 44 45 46 47 48 49 50
000
ASUS41 KAKQ 042315
RWRAKQ

REGIONAL WEATHER ROUNDUP
NATIONAL WEATHER SERVICE WAKEFIELD VA
700 PM EDT MON MAY 04 2015

Note: "fair" indicates few or no clouds below 12,000 feet with no
significant weather and/or obstructions to visibility. * = Denotes
station may not report precipitation (e.g., rain,snow,etc.),
thunder or fog.

VAZ042-051-052>054-056-050000-
NORTHERN VIRGINIA

CITY           SKY/WX    TMP DP  RH WIND       PRES   REMARKS
WASH NATIONAL  MOSUNNY   79  55  43 S12       30.15S
DULLES         SUNNY     80  49  33 S12G22    30.14F
FORT BELVOIR   SUNNY     81  51  34 S6        30.15S
QUANTICO       SUNNY     74  57  55 SW6       30.16S
FREDERICKSBRG* SUNNY     84  52  32 S8        30.15S
STAFFORD*      SUNNY     81  44  26 S5        30.20S
WARRENTON      SUNNY     81  54  38 S6        30.15S
CULPEPER*      NOT AVBL
MANASSAS*      SUNNY     82  50  32 S8        30.15S
LEESBURG*      MOSUNNY   82  54  36 S16       30.15S
WINCHESTER     MOSUNNY   81  41  24 S7        30.14F
FRONT ROYAL*   FAIR      79  50  36 S3        30.13S
LURAY*         FAIR      81  50  34 SW5       30.15S
$$

VAZ048-049-060>072-079>083-050000-
CENTRAL AND SOUTH CENTRAL VIRGINIA

CITY           SKY/WX    TMP DP  RH WIND       PRES   REMARKS
RICHMOND       MOSUNNY   80  52  37 S9        30.19F
CHESTERFIELD*  FAIR      79  48  34 S8        30.21F
PETERSBURG*    SUNNY     80  48  32 S7        30.22R
HANOVER        SUNNY     81  50  33 S12       30.20S
TAPPAHANNOCK*  SUNNY     81  42  24 S8        30.20S
QUINTON*       FAIR      80  52  37 S5        30.20S
CHARLOTTSVILLE MOSUNNY   79  51  37 S12       30.16S
GORDONSVILLE*  FAIR      80  52  37 S8        30.15S
ORANGE*        SUNNY     81  50  34 SE3       30.17S
LOUISA*        SUNNY     82  52  34 S8        30.16S
BUMPASS*       FAIR      80  52  37 S6        30.17S
FARMVILLE*     SUNNY     81  51  35 S8        30.18F
CREWE*         FAIR      79  52  38 S3        30.21S
FORT PICKETT*  FAIR      78  52  41 S9        30.22S
CHASE CITY*    FAIR      80  57  44 S3        30.22S
CLARKSVILLE*   FAIR      77  54  44 S6        30.22S
SOUTH HILL*    SUNNY     77  54  45 S8        30.28S
LAWRENCEVILLE* FAIR      78  53  41 S9        30.23S
EMPORIA*       SUNNY     77  50  38 SE7       30.25S
$$

VAZ088>098-050000-
SOUTHEAST VIRGINIA

CITY           SKY/WX    TMP DP  RH WIND       PRES   REMARKS
NORFOLK        CLEAR     78  45  30 SW14      30.23F
VIRGINIA BEACH PTCLDY    78  51  38 S14       30.24S
NORFOLK NAVAL  CLEAR     82  48  30 SW8       30.24F
WEST POINT*    SUNNY     82  45  27 S8        30.22S
SALUDA*        FAIR      76  54  45 S8        30.21S
NEWPORT NEWS   SUNNY     81  50  33 S12G20    30.22F
LANGLEY AFB    SUNNY     78  49  36 S10       30.21F
FORT EUSTIS    SUNNY     78  52  41 S6        30.20F
WILLIAMSBURG*  SUNNY     82  55  39 S7        30.22F
HR EXEC AP*    FAIR      79  48  34 S8        30.25S
FRANKLIN*      SUNNY     77  49  36 S7        30.24S
WAKEFIELD      SUNNY     80  51  36 S6        30.23S
$$

VAZ020-022-025-037-045-050000-
WEST CENTRAL AND SOUTHWEST VIRGINIA

CITY           SKY/WX    TMP DP  RH WIND       PRES   REMARKS
STAUNTON*      MOSUNNY   78  48  34 S7        30.19S
WAYNESBORO*    FAIR      76  50  39 S12       30.19F
HOT SPRINGS VA CLOUDY    68  46  45 S8        30.29S
LYNCHBURG      SUNNY     76  51  41 SW7       30.22S
DANVILLE       SUNNY     79  52  38 S8        30.22S
SOUTH BOSTON*  FAIR      78  50  36 S8        30.22R
MARTINSVILLE   MOSUNNY   79  49  34 SW5       30.24F
ROANOKE        MOSUNNY   78  50  37 S13       30.22S
BLACKSBURG     MOSUNNY   73  49  42 S3        30.28S
DUBLIN*        MOSUNNY   73  51  45 S8        30.26S
MARION*        MOSUNNY   73  45  35 SW7       30.30S
HILLSVILLE*    MOSUNNY   72  51  47 S8        30.29F
RICHLANDS*     FAIR      73  40  29 SW5       30.28S
WISE*          SUNNY     73  37  27 SW8       30.29F
ABINGDON*      SUNNY     77  44  31 W3        30.26F
$$

MDZ021>025-VAZ099-100-050000-
SOUTHERN MARYLAND AND THE DELMARVA PENINSULA

CITY           SKY/WX    TMP DP  RH WIND       PRES   REMARKS
PATUXENT RIVER MOSUNNY   75  52  44 SE9       30.18F
BAY BRIDGE APT   N/A    N/A N/A N/A S12G18    30.18R
LEONARDTOWN    SUNNY     77  50  38 SE9       30.20S
DOVER          CLEAR     79  45  29 SW8       30.17S
GEORGETOWN     CLEAR     77  47  34 S15       30.21S
EASTON         MOSUNNY   79  54  41 S14       30.22F
CAMBRIDGE      SUNNY     77  46  33 S10G18    30.19F
SALISBURY      CLEAR     76  49  38 S9        30.21F
OCEAN CITY     CLEAR     67  54  63 S8        30.23F
WALLOPS ISLAND CLEAR     66  53  63 S15       30.24F
ACCOMACK*      CLEAR     72  50  46 S12       30.24S
$$

NCZ012>017-030>032-050000-
NORTH CENTRAL AND EASTERN NORTH CAROLINA

CITY           SKY/WX    TMP DP  RH WIND       PRES   REMARKS
ROANOKE RAPIDS FAIR      75  52  43 S6        30.24S
RALEIGH        MOSUNNY   77  52  41 S10       30.24F
ELIZABETH CITY CLEAR     75  49  39 S10       30.26F
AHOSKIE*       SUNNY     75  49  39 S6        30.25S
EDENTON*       CLEAR     75  53  46 S13       30.26F
CURRITUCK*     CLEAR     78  42  28 S3        30.26F
KILL DEVIL HLS CLEAR     72  53  50 S9        30.28S
MANTEO         CLEAR     70  58  66 S14       30.30S
CAPE HATTERAS  CLEAR     68  60  75 S6        30.32S
TARBORO*       FAIR      79  48  33 S5        30.26S
GOLDSBORO      SUNNY     77  53  43 S10G17    30.25R
WASHINGTON     SUNNY     76  51  41 S8G16     30.27F
GREENVILLE     SUNNY     79  50  36 S10       30.27S
NEW BERN       SUNNY     74  51  44 S9        30.31S
WILMINGTON     SUNNY     74  49  41 S8        30.31S
$$

VAZ048-050000-
ELSEWHERE

CITY           SKY/WX    TMP DP  RH WIND       PRES   REMARKS
HARRISBURG PA  PTSUNNY   82  45  27 VRB7G17   30.10F
BALTIMORE      MOSUNNY   77  48  35 S10       30.14S
ANNAPOLIS      SUNNY     72  52  49 S12G20    30.16S
ANDREWS AFB    SUNNY     80  49  33 S12       30.15F
PHILADELPHIA   PTCLDY    82  40  22 SW15      30.15S
HENDERSON NC   SUNNY     77  47  35 S8        30.24S
GREENSBORO     MOSUNNY   78  50  37 S9        30.23F
ROCKY MOUNT    SUNNY     78  50  37 S7        30.25F
$$

VAZ100-050000-
MARINE

STATION/POSITION TIME  TEMP    WIND        PRES    WAVE   SWELL
                       AIR SEA DIR/SP/G            HT/PER HT/PER
                 (UTC) (F)     (DEG/KT/KT) (MB)    (FT/S) (FT/S)
BRANDYWINE LGT   2200   71 57  190/ 10/ 12 1022.7F
CAPE MAY NJ      2200   72 62  180/ 11/ 16 1022.5F
LEWES DE         2200   80 55  240/ 10/ 16 1022.7R
15NM E FENWICK I 2250   57 53              1023.4F   3/11
OCEAN-CITY-INLET 2200   62 63  200/ 10/ 13 1023.6S
WACHAPREAGUE VA  2200   70 69  190/  8/ 11 1024.3S
THOMAS POINT MD  2300   68 59  170/ 18/ 19 1022.0S
GOOSES REEF MD   2300   66 60                N/A     1
COVE POINT MD    2200   66     190/ 17/ 19 1023.2F
SOLOMONS ISLAND  2200      63                N/A
BISHOPS HEAD MD  2200   74 69  170/ 15/ 19 1022.6F
PINEY POINT MD   2200          170/  7/  7   N/A
CAMBRIDGE MD     2200   79 62  180/  9/ 14 1022.6S
LEWISETTA VA     2200   79 67              1022.2F
RAPPAHANNOCK LGT 2200          150/ 15/ 16 1024.3F
YORK RVR RNG VA  2200   67     150/ 13/ 15 1023.0F
YORKTOWN VA      2200   80 62  200/  8/ 15 1023.1F
JAMESTOWN VA     2300   78 65  210/ 10/ 14 1022.3F
DOMINION TERM VA 2200   75     220/ 13/ 14 1023.8F
KIPTOPEKE VA     2200      68  170/ 17/ 21   N/A
CHES BAY BRIDGE  2200      62  200/ 13/ 14 1023.5F
CAPE HENRY VA    2200   71     140/ 11/ 15 1022.9F
CHESAPEAKE LGHT  2200   62     170/ 27/ 27 1024.5F
WILLOUBY STN VA  2200   79     210/ 14/ 16 1024.5F
S CRANEY ISL VA  2200          200/  9/ 15 1024.0F
CAPE HENRY BUOY  2228      55                N/A     3/10   2/11
1ST LANDING BUOY 2300      61                N/A
CAPE CHARLES BUO 2226      58                N/A     3/10   2/10
OFFSHORE WE BUOY 2211      53                N/A     3/11   3/11
64NM E OF VA BCH 2250   64 62  190/ 10/ 12 1025.4F   3/10   3/10
DUCK PIER NC     2200   75 57  170/ 13/ 16 1024.3F
44056 DUCK FRF   2211      59                N/A     3/10   2/11
OREGON INLET NC  2200   70 69  180/ 13/ 16 1026.2F
HATTERAS NC      2200      67  200/  3/  6 1026.2F
DIAMOND SHLS NC  2250   75 78  210/ 12/ 14 1026.6F   4/11   3/11
CAPE LOOKOUT NC  2300   70     170/  6/  6 1026.3F
$$


USA.gov is the U.S. government's official web portal to all federal, state and local government web resources and services.